User: anonymous   Login
Location: Unspecified
(0.0000°N, 0.0000°E)
Time: 10:07:24
(UTC+00:00)
Language:

BLUEBIRD-SM004 - Orbit

View from above orbital plane
View from above orbital plane
View from above satellite
View from above satellite

Ground track
Ground track

The orbit is defined by the following mean orbital elements,

1 61049U          26145.03402810 +.00000000 +00000-0 +93315-3 0 00003
2 61049  52.9774  55.4014 0010471  73.5766 286.6378 15.20829544    02
Epoch (UTC): 25 May 2026 00:49:00
Eccentricity: 0.0010471
inclination: 52.9774°
perigee height: 496 km
apogee height: 511 km
right ascension of ascending node: 55.4014°
argument of perigee: 73.5766°
revolutions per day: 15.20829544
mean anomaly at epoch: 286.6378°

The dashed part of the orbit path shows where the satellite is in the earth's shadow,  

DLR